Location: Cuiry
(49.3858°N, 3.7708°E)
Time: 00:27:47
(UTC+00:00)

USA 238 - Pass Details

Date: 12 January 2026
Orbit: 883 x 1328 km, 63.4° (Epoch: 10 January)

Event Time Altitude Azimuth Distance (km) Brightness Sun altitude
Rises 18:37:25 0° 317° (NW) 3,956 7.2 -23.2°
Reaches altitude 10° 18:40:00 10° 314° (NW) 3,055 6.6 -23.7°
Maximum altitude 18:47:19 67° 235° (SW) 1,330 4.3 -24.8°
Drops below altitude 10° 18:55:18 10° 155° (SSE) 3,309 6.0 -26.1°
Enters shadow 18:56:25 - 154° (SSE) 3,692 6.3 -26.3°
